EDUSAT

Satellite information

Favourite Embed

Satellite Type and Status

PAYLOADIN ORBIT

Key statistics

Satellite EDUSAT at a glance.

Uptime

5181

Days in orbit

Revolutions

≈ 14.8

Per day

Orbit

SSO

Sun Synchronous Orbit

Inclination

98.3

Latest

Satellite identification and parameters

Extended collection of information and parameters for EDUSAT.

Object identification

Identified? True

Debris? False

Object name: EDUSAT

International designator: 2011-044A

Object number (NORAD): 37788

Object ID (CCSDS): 37788

Country: ITALY (IT)

Current information (Y/N): Y

RCS size: MEDIUM

Orbital parameters

Period: 97.571 minutes

Inclination: 98.2908 deg

SMA: 7020.58 km

Apoapsis: 667.137 km

Periapsis: 617.754 km

RAAN: 181.9775 deg

Eccentricy: 0.00351698

Argument of periapsis: 158.1944 deg

Mean anomaly: 317.7323 deg

Mean motion: 14.75853438 rev/day

Mean motion (dot): 0.00001693 rev/day2

B* drag term: 0.0002524129 1/REarth

Two-line elements (TLE)

Creation date: Oct. 23, 2025, 2:46 a.m.

Reference frame: TEME

Reference center: EARTH

Epoch: Oct. 22, 2025, 6:31 a.m. UTC

TLE line 0: 0 EDUSAT

TLE line 1: 1 37788U 11044A 25295.27166939 .00001693 00000-0 25241-3 0 9995

TLE line 2: 2 37788 98.2908 181.9775 0035170 158.1944 317.7323 14.75853438761421

Live tracking on map

Real-time ground track for satellite EDUSAT.

In-orbit conjunctions

There are no conjunctions computed for EDUSAT, at the moment. Check back to stay up to date, as we update our databases every day.

Go to all conjunctions

Associated space launch

EDUSAT was lifted into orbit during the mission ‘Dnepr 1 | Sich-2’, on board a Dnepr space rocket.

The launch took place on Aug. 17, 2011, 7:12 a.m. from 370/13.

For more information about the launch, click the button.

Launch to space Dnepr 1 | Sich-2
Dnepr 1 | Sich-2

Agency: N/A

Status: Launch Successful

Launch date: Aug. 17, 2011, 7:12 a.m. UTC

Rocket: Dnepr

Launch pad: 370/13

Location: Dombarovskiy, Russian Federation

...

Latest news about this satellite

There are no fresh news available about this satellite. Check back as we update our databases every day.


Newsletter sign-up

Weekly statistics, charts and insights to help you stay on top of the space industry.